GFSWCAN_sfc_30mbdewp_021.txt.gz
Dewpoint
39 40 41 41 42 43 43 44 46 46 48 47 48 49 49 49 49 50 54 55 39 32 38 40 33 31 30 33 41 41 39 40 39 37 39 36 36 31 29 26 31 28 30 29 31 30 19 21 27 23 32 28 28 30
41 41 43 43 42 43 45 46 47 47 48 48 48 48 49 49 49 50 53 53 52 42 47 49 50 49 44 38 38 41 35 39 39 36 41 43 36 35 34 27 29 28 29 29 26 25 27 26 25 27 30 31 31 31
42 41 42 43 42 44 47 47 47 47 47 48 48 48 48 49 49 50 53 53 49 49 47 45 45 49 49 50 51 39 42 40 41 45 45 45 34 40 33 33 32 30 31 28 28 22 23 25 27 29 30 31 32 33
43 43 43 47 47 47 48 47 47 48 48 48 48 48 48 49 49 50 52 54 48 49 45 46 49 48 49 49 48 49 45 45 43 43 46 39 38 38 39 35 32 31 30 28 29 26 25 27 30 33 35 36 37 37
46 46 47 47 47 47 47 47 47 47 48 48 48 48 49 49 49 52 52 52 54 44 45 46 47 47 47 46 45 45 45 42 41 43 35 41 40 39 40 37 34 32 27 32 29 33 35 32 36 40 39 40 40 40
46 46 46 46 46 46 46 46 47 47 47 48 48 48 49 49 49 49 47 50 49 52 48 44 47 46 47 45 44 43 44 42 41 44 44 39 40 39 38 32 35 36 37 37 36 39 39 40 37 36 35 34 34 33
46 47 47 47 47 47 47 48 48 48 48 48 48 48 48 49 49 46 41 50 49 51 47 44 44 46 47 46 47 46 47 46 43 44 44 43 40 40 40 34 38 36 36 38 38 40 39 36 35 35 36 36 36 36
46 47 47 46 47 47 48 49 49 48 48 48 48 48 49 49 48 49 47 47 49 47 46 43 42 45 47 46 45 46 47 46 44 42 42 42 40 42 38 37 36 35 36 37 35 36 35 34 35 36 36 35 33 33
46 46 46 45 45 45 47 48 48 48 48 48 49 50 50 51 47 50 45 48 50 47 42 44 41 40 44 42 44 44 45 42 42 40 41 42 38 37 36 35 35 35 36 36 35 34 35 35 34 34 33 32 31 30
46 46 45 45 45 45 45 45 46 46 46 48 46 44 44 49 46 47 44 47 45 44 42 38 42 40 42 42 39 41 42 39 37 39 41 39 37 33 34 34 35 35 36 36 35 34 34 33 33 32 32 30 29 31
44 44 44 43 43 44 45 45 45 45 47 48 46 46 47 46 46 44 39 39 39 37 39 39 40 39 42 40 37 40 38 38 35 37 36 35 34 32 34 35 36 36 36 36 36 35 33 32 30 29 30 31 28 27
42 42 42 42 42 41 42 45 47 46 47 48 48 47 46 44 41 35 35 38 38 35 37 37 38 39 40 42 38 39 35 35 32 37 35 31 32 33 34 35 35 34 34 33 33 31 31 30 29 27 27 28 30 30
42 41 41 40 41 41 40 41 42 42 45 46 42 37 39 38 31 30 28 32 33 36 36 38 36 39 39 40 38 36 33 34 36 32 30 32 32 34 34 34 32 32 31 30 28 26 25 27 30 31 30 31 32 30
40 40 40 40 39 39 40 40 42 43 42 38 37 32 34 33 31 31 32 33 33 34 38 39 36 38 38 36 36 34 32 35 30 28 30 30 32 34 34 32 31 29 27 25 28 29 30 31 30 31 31 31 30 29
38 39 39 39 39 38 38 39 40 41 38 34 34 29 28 30 31 32 33 33 34 36 37 39 38 38 35 34 35 33 30 29 31 31 31 32 33 34 34 30 26 28 30 30 30 30 31 32 31 29 28 27 27 26
35 36 37 39 38 37 37 38 39 38 36 33 32 30 32 31 31 32 32 32 34 35 37 38 34 34 32 33 32 31 31 29 31 32 32 33 32 34 34 28 28 30 30 30 30 30 31 30 29 28 25 23 25 25
35 35 38 38 37 36 36 36 36 34 33 32 30 32 32 31 30 30 32 32 35 34 31 33 31 29 32 31 30 32 29 31 32 32 33 33 32 33 32 33 33 31 30 30 30 29 28 27 26 22 18 17 18 19
34 36 37 37 37 35 34 34 33 31 29 32 30 30 31 32 32 32 34 35 36 34 33 30 33 30 29 28 29 31 32 33 34 33 32 35 34 35 35 34 30 30 30 28 27 26 25 23 20 17 15 15 15 15
33 35 36 36 36 34 31 31 31 28 30 31 32 33 32 32 34 34 34 36 35 35 34 32 30 29 30 31 30 31 32 33 32 32 32 34 35 35 32 30 29 29 27 26 24 22 21 17 16 15 15 13 15 14
33 32 34 35 34 31 30 29 29 28 27 30 32 30 30 30 33 32 34 34 33 31 29 28 28 28 29 29 31 32 34 34 32 30 29 31 33 33 31 29 27 26 23 19 18 18 17 16 14 13 15 13 15 14
31 30 33 34 32 31 29 28 26 28 26 26 30 29 27 31 31 31 32 33 32 29 28 30 30 30 30 30 30 32 32 34 34 33 31 29 30 29 28 27 26 25 24 22 19 17 17 14 12 12 14 15 14 15
30 32 33 32 30 31 28 30 25 26 24 25 25 26 26 27 28 28 31 29 26 26 28 29 28 30 27 25 26 28 30 31 30 30 29 29 26 25 25 25 24 22 20 18 16 16 14 11 11 12 13 13 13 13
31 31 31 31 26 26 25 27 26 25 23 23 26 23 24 25 27 28 25 26 24 24 27 27 26 26 25 25 24 24 26 25 23 22 21 20 20 20 19 18 20 19 16 10 10 10 11 10 10 11 12 11 12 11
28 28 26 26 25 23 26 23 22 22 23 22 21 21 22 25 26 24 21 20 22 22 22 24 27 26 24 22 20 21 23 22 21 22 22 20 17 17 17 15 13 10 9 9 10 11 11 11 9 10 10 9 9 8
23 23 26 23 25 23 22 22 22 21 19 22 22 21 22 26 22 19 18 18 20 20 21 24 22 22 21 20 19 19 20 21 18 16 18 19 17 16 11 9 9 8 9 10 9 9 9 8 8 8 7 7 7 6
21 24 22 22 23 22 22 20 21 20 21 20 22 23 24 22 18 16 16 18 18 18 18 20 22 20 17 17 16 15 16 19 18 14 11 9 10 11 9 8 8 10 8 9 8 7 7 6 5 5 5 6 6 5
20 21 23 25 24 23 23 24 23 21 20 20 21 21 22 17 16 16 18 18 18 18 18 18 18 17 16 15 15 15 14 12 11 9 8 7 8 8 8 7 6 6 6 6 6 6 5 5 4 4 5 5 5 5
21 23 21 23 23 24 22 21 20 19 21 22 22 19 18 17 16 16 16 18 18 17 16 15 14 14 14 14 16 15 13 12 12 10 10 10 8 8 7 7 6 5 5 5 4 4 4 4 4 5 5 4 3 4
22 25 23 21 22 22 21 20 20 21 22 22 22 18 15 13 14 16 15 17 19 19 16 15 14 15 13 12 11 11 11 10 8 5 4 6 6 8 7 6 5 5 5 5 3 3 3 3 4 4 3 3 3 3
23 25 21 21 20 19 21 25 25 24 22 21 18 14 13 12 13 15 16 16 14 13 13 13 13 12 10 10 9 9 9 7 6 5 4 4 5 5 5 5 5 5 5 4 3 3 3 3 3 3 3 2 2 1
24 24 21 20 19 21 23 24 25 23 21 18 18 16 13 11 12 12 12 12 12 12 12 10 9 9 7 6 6 6 6 7 5 4 4 4 4 5 5 5 5 5 4 3 2 2 1 0 1 1 1 -0 -1 -2
22 20 19 17 19 22 22 21 21 22 20 17 14 14 12 12 9 9 10 12 11 9 7 8 8 7 6 6 6 6 4 5 4 4 4 4 4 5 5 5 5 4 3 2 1 1 1 -0 -0 -1 -1 -2 -3 -5
20 19 17 17 17 18 19 18 16 15 15 13 11 11 11 11 6 8 10 10 9 8 8 8 8 8 7 6 6 5 3 3 3 3 4 3 3 3 3 4 4 3 2 1 1 1 0 -1 -1 -2 -4 -4 -5 -6

GFSWCAN_sfc_30mbdewp_024.txt.gz
Dewpoint
38 38 38 38 39 40 41 42 43 44 44 45 44 44 45 44 46 48 47 50 52 47 36 37 33 29 37 41 42 42 40 40 42 38 37 37 37 33 28 27 32 30 34 32 34 33 24 22 26 24 34 31 30 30
38 38 39 39 40 41 42 43 43 44 45 44 45 45 45 48 49 49 46 49 52 53 48 51 49 48 43 39 44 43 38 41 43 37 39 41 38 37 34 29 26 28 31 32 31 31 30 24 25 26 29 29 30 31
39 40 40 40 42 42 42 43 44 45 45 46 46 47 47 48 49 49 48 50 56 49 47 44 45 49 50 51 52 42 42 40 41 45 48 47 38 42 33 36 31 30 31 31 29 22 24 25 27 27 31 34 35 35
41 42 42 42 42 42 43 44 44 45 47 47 47 47 48 49 49 50 48 50 54 49 45 48 49 48 48 49 49 50 46 48 48 49 48 40 40 41 40 36 35 33 30 28 28 29 28 29 35 38 39 39 40 40
41 41 41 42 41 42 43 45 45 46 47 47 47 48 48 49 49 50 51 52 54 43 45 46 47 47 47 48 47 48 48 46 46 45 33 41 42 42 43 39 35 33 29 31 33 36 36 37 38 39 37 36 36 35
42 43 43 44 46 44 45 47 46 46 47 48 48 48 48 49 49 49 49 51 53 49 48 44 47 46 45 45 45 45 46 45 43 47 46 41 41 42 37 33 33 37 37 37 36 39 40 38 36 36 36 35 36 36
46 46 46 46 46 46 46 46 47 47 47 47 48 48 49 49 50 49 44 49 49 54 48 44 43 46 47 47 47 46 46 46 44 45 47 43 40 43 41 35 37 36 36 38 37 39 37 37 36 37 36 35 35 34
46 47 47 47 46 47 47 46 46 46 46 47 48 48 49 49 49 49 48 47 49 46 48 43 42 44 47 47 46 48 47 46 45 44 44 44 42 45 39 37 36 36 37 37 35 36 36 36 36 36 35 34 32 32
45 45 46 47 47 47 47 47 47 47 47 48 48 49 49 48 48 49 45 48 53 47 42 44 39 40 45 44 45 46 46 42 43 42 42 42 39 39 38 36 35 36 38 36 35 36 36 35 34 33 32 30 30 30
43 43 44 45 47 48 47 48 48 48 48 48 49 43 44 50 47 46 47 45 45 46 45 40 44 40 43 42 40 41 43 40 37 39 41 39 37 35 35 36 36 36 37 36 35 34 34 33 32 31 31 32 31 27
43 43 42 43 44 45 46 47 49 49 49 49 46 45 48 47 46 44 40 39 40 39 40 39 41 41 44 40 38 42 38 39 35 37 36 35 34 34 35 35 36 36 37 36 36 35 34 32 31 32 28 27 28 28
41 42 43 42 42 43 45 46 47 48 49 48 47 48 47 45 41 35 36 38 40 37 37 37 39 40 42 43 38 39 35 36 32 37 35 32 34 34 34 35 34 34 34 33 32 31 31 30 28 29 29 30 31 30
41 41 42 43 43 42 43 44 45 46 46 47 42 39 40 39 35 34 31 34 33 35 37 38 36 40 40 40 37 36 33 33 36 33 30 33 33 34 35 34 32 33 33 31 28 28 29 31 32 30 30 31 31 30
40 40 40 40 42 42 42 42 43 44 43 40 37 33 34 32 31 30 31 32 33 34 38 38 37 37 38 36 36 32 33 34 31 29 29 32 33 34 34 32 31 29 29 28 28 30 31 30 29 29 29 29 27 26
37 38 37 38 40 41 42 42 41 41 38 35 34 28 28 30 32 32 33 33 34 37 38 39 39 38 35 34 34 33 31 29 30 30 31 33 34 35 33 31 29 30 31 30 31 31 30 30 28 27 27 27 26 26
37 36 36 39 38 38 40 41 41 40 37 33 31 30 32 31 30 31 32 32 34 35 39 39 35 33 32 34 31 32 31 29 30 31 32 33 34 35 34 29 30 30 32 31 31 31 30 29 28 26 24 24 25 23
35 34 38 38 37 36 38 38 37 35 34 32 29 31 32 31 29 30 32 33 36 35 32 34 31 28 33 31 30 31 27 30 31 32 33 33 33 35 32 33 32 31 31 31 30 29 28 27 26 23 19 17 18 21
34 35 37 38 37 34 34 36 34 32 29 31 28 30 31 32 32 32 34 36 36 34 33 30 34 30 28 27 27 30 31 32 34 34 33 34 35 35 34 33 32 32 30 29 28 27 27 25 21 19 17 15 16 16
33 35 36 36 36 34 31 32 32 29 30 31 32 33 33 33 34 35 35 38 36 37 35 34 29 27 27 28 27 30 32 32 31 31 33 35 35 35 36 33 31 30 28 28 26 24 19 18 17 17 16 15 17 16
32 32 35 33 33 32 29 28 31 30 29 31 33 31 30 31 34 34 36 35 33 30 28 26 26 27 27 28 29 30 32 33 32 30 30 33 35 33 31 30 28 27 23 21 20 21 19 18 15 15 16 16 16 16
29 31 33 34 32 31 30 28 27 28 28 28 30 28 28 32 31 31 32 32 26 27 26 27 28 28 29 29 28 30 30 30 29 32 31 30 31 31 31 31 31 31 28 26 22 20 18 15 14 14 16 17 16 16
29 33 34 34 31 30 28 31 26 25 25 26 26 26 27 27 28 29 29 24 22 25 28 26 26 26 25 25 26 28 29 27 27 27 29 29 26 25 25 26 24 21 21 21 21 19 16 12 13 13 14 15 14 15
32 33 33 33 26 27 25 27 25 24 22 22 25 22 23 24 27 29 24 23 24 26 27 28 25 26 25 25 23 23 25 24 23 23 22 22 21 21 19 18 20 20 17 17 14 13 13 12 13 12 13 12 13 13
31 30 27 27 26 24 26 23 23 22 24 23 20 21 22 24 26 22 19 20 22 23 24 23 27 27 22 20 19 20 23 22 21 22 23 20 18 17 17 16 16 14 13 12 13 13 13 12 11 11 11 10 11 10
23 23 27 23 27 23 22 21 21 20 19 23 23 22 23 27 21 20 19 20 20 20 21 25 21 22 22 21 19 19 21 19 17 15 18 22 19 17 13 11 10 10 11 11 10 10 10 10 10 9 7 8 8 8
21 23 22 21 22 22 21 19 19 20 20 20 20 22 25 23 19 17 17 19 18 19 19 20 21 19 16 16 15 15 15 20 17 13 10 10 12 13 12 11 12 11 9 10 8 7 7 7 6 6 6 6 7 8
19 21 23 25 24 24 23 23 24 23 21 21 23 22 21 19 16 17 18 19 18 19 18 18 18 17 16 16 16 15 12 12 11 9 9 9 10 9 9 8 7 6 6 7 6 6 5 5 6 6 6 8 8 8
23 23 19 24 23 24 20 20 21 21 22 23 25 19 18 16 14 17 18 20 20 18 17 16 15 15 15 15 15 15 14 15 14 13 13 12 11 10 9 8 9 7 7 8 6 7 5 5 5 6 6 5 5 6
23 25 25 21 21 21 22 22 22 23 22 22 22 19 15 14 16 17 16 19 22 21 18 17 17 17 16 13 12 11 11 9 9 6 6 7 9 11 8 7 7 7 7 7 6 6 6 6 5 5 4 3 4 6
21 26 21 19 18 19 22 24 24 23 21 21 18 15 13 13 15 18 16 16 15 14 15 15 15 13 12 13 10 11 10 7 6 5 5 5 5 6 7 8 7 7 7 6 5 5 4 5 3 4 6 6 4 4
22 25 19 19 20 22 22 24 25 22 22 20 19 16 13 11 13 13 13 16 14 15 15 12 9 9 8 7 7 7 8 8 6 5 4 4 5 6 8 8 7 7 6 5 5 3 3 3 2 2 2 2 1 1
20 19 18 16 21 22 21 21 22 23 21 19 15 15 14 15 10 10 11 15 13 10 10 10 9 8 8 8 8 8 5 6 6 6 4 4 4 5 6 6 6 7 7 5 4 4 3 3 2 1 1 1 0 -2
18 18 17 16 16 19 20 18 16 17 16 14 12 13 12 11 6 9 12 12 10 10 9 10 10 11 9 8 6 6 4 4 5 6 8 8 6 3 2 4 5 4 4 3 2 2 2 2 2 1 -0 -2 -2 -2

GFSWCAN_sfc_30mbdewp_027.txt.gz
Dewpoint
37 37 38 39 38 39 40 41 41 42 43 44 43 44 45 44 44 45 42 45 48 46 46 44 36 37 41 42 40 43 43 41 43 33 30 35 32 29 32 34 32 28 29 26 34 29 24 27 26 18 33 32 31 30
39 39 39 39 38 38 38 40 40 41 41 42 44 44 44 44 44 45 40 44 49 46 48 53 49 50 45 44 44 43 41 40 41 37 40 39 35 35 32 28 33 27 33 30 31 29 33 26 26 30 30 31 35 36
39 39 39 39 40 40 41 41 42 43 44 45 45 45 44 44 45 44 41 48 49 46 46 48 46 48 50 49 46 40 44 44 45 49 43 43 32 38 31 30 31 32 34 31 29 28 29 27 37 39 39 40 40 37
39 39 39 40 41 42 42 43 43 44 45 45 45 45 45 45 46 46 45 47 49 47 45 47 50 47 48 50 50 49 47 50 50 49 41 38 33 43 34 36 33 34 31 30 29 30 38 39 40 39 37 37 34 32
40 40 40 41 42 42 42 43 44 44 45 45 46 46 46 48 49 49 49 49 52 45 44 46 47 48 47 49 49 50 48 48 46 38 31 35 42 41 40 37 33 33 31 28 29 38 37 37 37 37 35 35 35 35
42 42 42 43 43 43 43 43 44 44 45 45 46 46 47 48 49 47 43 49 51 49 45 41 47 46 46 47 47 48 48 46 47 44 43 42 43 37 32 29 37 38 39 40 39 39 37 37 37 37 36 36 36 35
41 41 41 42 42 42 43 43 44 44 45 47 46 46 48 49 49 44 44 50 51 50 46 41 42 46 48 49 48 47 47 49 47 46 45 40 39 42 37 32 36 37 38 38 39 38 36 37 36 36 34 34 34 33
41 42 42 42 42 44 43 42 44 46 47 47 47 48 49 49 50 47 50 49 49 49 46 40 42 44 48 46 44 48 47 46 45 43 44 41 42 42 36 36 36 37 36 36 37 38 37 36 35 34 34 33 31 30
45 44 45 45 45 45 45 46 46 46 47 47 48 48 49 49 47 50 48 47 52 46 42 40 39 39 45 43 44 45 46 41 44 40 42 39 38 37 37 36 36 38 37 36 36 35 35 34 33 32 30 30 31 31
46 46 46 46 46 46 46 46 46 47 48 48 49 48 45 49 48 50 47 42 42 44 42 39 41 40 42 41 40 40 41 39 35 39 40 38 35 35 36 36 36 37 37 36 34 33 33 32 31 32 31 28 28 27
45 46 47 46 46 46 46 46 47 48 48 49 46 43 47 48 44 41 37 38 38 37 39 39 40 41 44 38 37 40 37 38 33 36 34 35 34 34 36 36 37 37 37 37 35 34 34 33 30 28 28 28 28 28
44 44 45 47 47 47 47 47 47 49 49 47 46 48 46 42 38 34 34 36 37 35 37 37 39 41 41 43 38 39 34 35 32 37 34 32 33 35 35 35 35 36 35 34 33 31 31 29 29 29 29 29 29 28
43 44 44 44 45 47 48 48 48 48 48 44 39 38 39 37 34 31 29 32 32 35 36 38 36 40 39 39 37 35 33 33 35 31 29 32 34 34 34 34 33 32 31 30 31 31 31 30 31 31 30 30 28 26
40 41 43 44 44 43 42 43 44 43 41 38 35 32 32 31 30 30 31 32 32 34 37 37 37 37 38 35 36 31 33 33 31 28 28 32 34 35 34 33 31 29 29 30 30 30 29 29 28 28 27 25 25 24
37 38 39 41 43 42 42 41 40 40 37 33 32 27 28 30 31 31 32 33 33 36 37 39 37 36 35 33 33 32 30 28 29 29 31 33 34 34 32 30 29 29 29 30 30 29 28 27 26 26 26 25 25 23
37 34 36 40 40 41 42 41 40 37 35 32 30 30 31 31 30 31 32 32 35 35 38 38 34 32 32 33 31 30 29 27 28 30 32 34 34 33 30 30 31 31 30 31 30 30 28 26 23 23 25 22 20 19
36 34 38 38 37 38 39 38 37 34 32 30 29 31 31 31 29 31 32 33 36 35 32 34 30 28 33 31 27 29 26 28 30 31 33 34 34 32 32 33 32 32 31 30 30 29 28 27 22 21 19 23 20 17
36 37 38 37 37 35 36 36 33 32 28 30 28 30 31 32 31 32 33 35 35 33 33 30 34 28 25 25 24 28 30 31 32 32 32 34 34 34 34 34 33 31 30 29 28 28 25 23 20 18 17 18 19 17
35 36 36 35 36 34 31 32 33 28 29 31 32 33 32 32 33 34 34 35 37 36 34 31 25 23 23 25 24 27 30 31 30 31 33 34 35 35 35 33 31 31 29 28 27 21 20 19 19 17 17 18 17 17
31 34 36 34 35 29 28 29 34 30 28 30 33 31 31 32 33 33 28 28 29 28 25 24 23 24 24 25 26 28 28 32 31 30 31 32 33 32 31 31 30 26 23 23 22 20 18 17 18 18 18 17 14 14
32 33 36 36 33 32 31 28 28 30 31 29 29 29 29 30 29 27 25 24 21 25 23 25 25 25 26 26 27 28 26 27 26 29 30 27 29 29 28 28 28 28 25 23 21 19 18 16 15 16 16 13 13 14
32 35 34 33 30 28 27 29 26 27 27 26 26 28 26 25 27 27 23 21 21 24 26 25 25 24 22 23 24 26 26 25 24 23 23 23 20 20 21 21 20 18 18 19 19 17 16 15 13 13 13 12 12 14
35 34 30 28 23 23 22 29 23 23 22 23 24 21 22 24 27 28 22 23 22 26 27 27 25 23 21 21 22 22 23 22 20 20 19 19 18 18 17 17 18 17 16 17 18 17 15 14 11 12 11 9 10 11
33 30 26 26 24 23 25 22 24 23 22 22 20 18 21 22 25 19 18 19 21 22 24 24 26 21 19 18 18 19 21 20 19 20 20 18 16 15 15 15 15 15 16 15 13 13 12 11 10 9 6 6 8 7
19 22 24 21 25 21 19 19 20 19 20 22 21 21 21 26 18 19 17 18 18 18 19 22 18 18 19 17 17 17 19 19 16 14 15 19 17 15 13 12 11 11 12 9 8 8 8 7 6 5 5 5 6 8
19 22 20 20 21 21 20 18 20 21 22 20 21 23 24 22 17 14 16 17 16 17 17 18 19 15 15 15 14 13 14 18 13 11 11 11 12 13 12 11 10 7 8 7 6 5 4 5 5 5 5 6 8 8
18 20 24 25 26 26 21 23 23 21 20 20 22 21 22 18 13 15 18 19 17 18 18 18 19 17 16 17 17 14 13 12 11 11 12 11 11 10 7 5 3 4 6 6 4 3 5 5 5 3 4 6 4 4
24 25 21 22 23 24 21 22 21 20 21 22 24 17 15 12 11 16 18 21 20 19 18 16 15 15 15 15 14 12 11 12 13 13 13 12 11 9 8 8 7 8 10 8 6 8 7 6 4 3 4 4 3 1
22 26 23 19 20 20 22 22 21 22 22 22 19 15 12 13 15 17 19 19 19 17 16 15 17 16 13 12 11 9 6 6 5 4 5 6 7 6 6 7 8 7 7 7 6 6 6 6 7 3 2 4 5 4
19 24 19 17 18 18 21 24 20 22 23 21 16 13 12 13 14 16 15 16 15 14 14 14 12 10 8 10 9 8 6 5 4 2 1 2 3 6 6 9 7 7 8 6 4 5 4 3 3 3 2 2 5 2
21 22 19 20 19 21 21 25 22 21 19 17 15 11 9 10 13 13 12 15 12 13 13 9 8 8 8 7 7 6 5 5 6 5 3 3 4 4 5 5 7 5 5 7 7 4 3 2 3 3 2 0 1 -0
18 17 17 18 20 20 21 20 21 22 18 17 15 13 13 12 7 8 11 11 10 9 10 9 9 8 6 6 7 7 5 5 8 4 4 5 4 4 3 2 2 5 4 2 3 2 1 1 2 2 2 0 -4 -4
18 17 16 15 18 19 18 17 18 16 14 13 13 14 11 8 5 9 14 13 9 9 8 10 11 11 11 7 5 5 5 4 4 6 6 5 5 6 4 3 3 1 0 -0 -0 -0 -1 0 0 1 1 -1 -2 -2

GFSWCAN_sfc_30mbdewp_030.txt.gz
Dewpoint
37 37 38 39 39 39 39 40 40 40 40 41 41 42 42 43 45 43 45 47 43 42 44 48 36 33 37 40 38 43 42 42 40 32 30 32 27 31 31 31 29 25 26 28 29 24 20 31 26 20 24 33 31 31
39 38 39 39 40 40 40 40 41 41 41 41 41 42 43 45 45 43 41 46 46 42 44 47 47 48 36 42 42 44 39 40 40 34 38 37 34 33 31 30 34 25 26 25 28 24 31 29 29 34 32 33 36 38
39 39 38 39 39 39 41 42 43 41 41 42 42 43 45 44 45 42 42 45 44 42 43 45 44 48 50 45 45 40 44 44 44 43 40 38 31 34 28 28 31 31 36 32 32 33 33 37 40 40 41 38 36 37
39 39 40 39 39 37 41 41 41 42 43 43 43 45 45 44 45 43 43 45 47 45 41 44 51 48 50 48 45 43 42 49 50 45 39 36 30 37 30 30 29 32 33 31 33 38 39 39 38 37 34 34 33 33
40 40 40 41 41 39 41 41 40 41 42 42 44 45 45 45 45 44 45 46 47 46 40 41 48 49 50 51 46 44 47 47 41 34 31 31 39 40 37 35 33 33 31 28 27 35 35 37 37 36 35 35 35 34
40 40 41 41 42 42 42 42 43 44 43 45 45 45 45 45 45 44 41 47 49 49 41 35 47 48 49 52 50 48 47 47 45 39 42 41 43 35 31 31 35 38 38 35 37 39 37 37 37 37 36 35 35 34
41 41 42 42 43 42 43 44 44 45 45 45 45 45 45 45 46 41 40 47 49 48 41 39 40 47 50 48 49 49 49 48 46 45 42 39 40 38 30 29 37 38 39 38 37 37 36 36 34 34 34 34 34 33
42 42 43 43 43 43 43 44 44 44 44 45 45 46 46 47 47 45 48 51 51 46 46 40 39 43 46 43 44 47 45 44 44 43 43 39 42 38 31 37 38 37 38 38 38 38 36 35 34 33 32 32 31 31
41 41 41 41 42 41 43 43 44 44 45 46 46 47 46 46 44 44 49 51 50 47 42 40 38 39 44 42 42 43 41 39 41 41 42 38 37 37 37 36 36 36 36 36 35 35 34 33 32 31 30 30 29 28
41 41 40 40 41 41 41 43 44 45 46 47 45 44 39 45 50 50 47 45 45 45 40 39 41 39 42 39 40 39 39 38 36 38 39 35 34 35 36 37 38 37 36 35 34 33 32 30 30 30 31 29 28 27
43 43 43 43 43 44 44 43 45 47 47 45 44 43 48 50 44 43 39 37 37 35 37 39 40 40 43 38 38 38 37 36 33 36 36 34 32 34 37 37 38 37 36 35 34 33 32 31 30 29 28 28 27 28
46 45 45 45 46 46 46 46 46 46 46 48 47 48 47 44 38 34 33 35 35 33 36 37 39 41 41 41 38 37 34 34 31 37 33 32 34 36 37 37 37 36 35 34 34 33 31 30 29 27 27 27 28 28
46 46 46 46 46 46 46 47 47 49 47 45 40 38 37 34 32 29 30 32 32 34 36 37 37 39 38 38 36 35 32 31 34 31 30 30 34 35 35 33 32 31 32 32 31 31 30 30 29 28 28 28 27 26
44 45 45 45 46 46 46 45 45 43 38 34 33 30 31 29 29 29 31 31 32 33 36 37 36 36 36 35 35 32 33 33 29 27 27 31 34 34 32 31 31 31 31 30 29 29 29 29 28 29 26 25 24 23
41 42 43 44 42 41 40 39 38 38 35 31 31 26 27 30 31 31 32 33 33 35 36 37 36 35 34 33 32 32 30 27 29 28 30 33 34 33 31 30 30 29 29 28 28 27 27 27 26 25 25 25 24 22
38 39 39 42 42 42 40 39 37 36 34 30 30 29 30 29 29 31 31 32 35 35 36 36 33 31 30 32 29 28 27 26 27 29 32 34 31 30 30 30 30 29 28 28 28 27 26 24 24 24 23 22 22 19
35 35 39 38 37 37 39 37 34 33 31 29 28 31 31 30 29 30 31 32 35 34 32 33 29 28 32 28 25 27 24 27 29 30 33 33 31 32 32 31 30 30 30 29 28 26 25 24 24 22 19 18 19 19
34 36 38 37 35 34 35 36 33 30 28 30 27 29 31 31 30 30 31 34 34 32 32 29 31 24 21 21 21 24 29 30 31 31 32 32 32 32 33 32 32 31 30 29 29 28 23 22 20 20 22 20 19 20
36 36 37 36 34 32 30 32 32 28 29 31 31 32 32 31 30 28 28 31 33 32 31 27 21 20 20 22 21 24 25 29 29 31 32 33 33 33 33 32 31 30 29 28 26 23 21 19 19 19 19 18 17 18
32 35 35 35 32 28 28 29 33 30 28 30 32 30 30 29 27 24 23 24 26 25 23 20 19 20 21 22 25 24 24 28 31 29 29 29 31 31 31 29 27 27 25 24 21 20 19 19 19 19 16 14 14 16
31 33 33 33 30 30 29 28 29 30 31 27 29 28 27 27 20 20 21 22 19 22 19 22 21 22 24 24 24 25 23 23 22 26 25 22 23 22 22 23 24 23 20 19 18 17 17 16 17 17 16 14 15 16
32 35 28 28 26 25 24 27 26 27 26 26 26 26 23 24 24 20 20 19 20 22 24 23 22 20 20 20 21 22 23 21 21 20 20 20 17 18 18 19 18 17 17 17 16 15 15 15 15 15 12 10 13 11
31 29 27 22 19 20 20 26 22 25 22 23 21 20 23 25 27 23 19 20 20 22 24 21 20 20 19 19 19 19 20 19 18 17 17 16 16 16 15 15 17 16 15 15 17 15 14 13 12 9 7 8 9 7
29 25 24 24 22 22 20 20 23 20 21 19 18 19 22 24 21 16 15 16 18 19 20 20 20 17 15 15 15 16 18 16 15 16 18 15 13 13 13 12 12 12 12 11 10 10 9 7 7 5 5 5 5 6
18 20 19 19 20 18 18 19 19 19 18 20 19 19 20 21 17 15 14 14 14 14 16 18 16 16 14 13 13 15 17 15 13 12 13 16 14 12 11 9 8 9 9 6 5 4 5 4 4 4 3 4 5 6
18 22 19 18 20 19 17 17 17 19 20 19 20 21 22 15 10 10 13 13 14 14 14 15 13 13 13 12 11 12 13 14 11 9 10 10 11 10 8 7 2 4 6 3 2 1 3 2 2 0 1 4 4 3
17 20 24 27 27 23 21 21 21 19 18 18 20 19 18 10 9 12 16 17 15 15 16 16 16 14 13 13 14 14 13 13 11 10 11 10 8 6 4 2 3 4 6 4 3 3 4 3 3 2 1 1 2 2
24 25 20 20 19 22 20 19 18 17 18 20 19 11 9 8 7 14 16 18 17 17 15 15 14 13 10 7 6 5 8 12 12 11 9 8 7 5 6 7 7 9 8 6 5 6 5 5 4 3 2 2 2 1
22 23 18 16 17 18 19 19 18 20 21 20 13 9 8 10 11 12 15 16 16 14 12 11 12 11 9 6 5 4 2 1 1 1 -0 -0 -2 1 4 6 6 5 4 6 5 5 6 4 4 4 2 2 3 3
18 20 16 16 16 16 19 20 18 18 18 13 11 10 9 10 11 13 13 12 10 9 9 8 8 6 5 5 5 5 4 3 2 0 -1 -1 1 3 3 2 2 3 2 2 2 3 5 2 1 1 1 1 -1 -0
18 16 18 17 16 19 22 21 19 14 13 10 8 5 6 8 10 11 11 11 11 9 7 6 5 4 5 5 3 1 1 3 4 5 3 2 2 1 2 2 0 1 1 0 0 0 0 -1 -1 -1 -1 -0 -1 -2
15 16 16 16 16 19 21 21 19 16 15 13 10 8 9 5 3 7 10 7 6 6 6 6 6 6 5 4 2 2 2 2 3 4 3 3 3 3 2 2 1 0 -1 -2 -3 -2 -2 -2 -3 -3 -3 -3 -3 -4
15 12 11 13 15 16 15 16 16 12 11 10 10 9 7 4 2 7 10 8 5 2 2 3 4 6 6 2 0 -1 1 0 -0 1 2 4 2 1 0 0 -0 -1 -2 -2 -2 -4 -4 -4 -5 -6 -6 -6 -6 -7